Delta 2 Rocket - Orbit

View from above orbital plane
View from above orbital plane
View from above satellite
View from above satellite

Ground track
Ground track

The orbit data is extracted from the following two-line orbital elements,

1 20453U 90008B   13140.76286415  .00009682  00000-0  66482-3 0  6822
2 20453 035.6280 255.3710 0344401 141.9395 220.6180 14.67933147227994
Epoch (UTC): 20 May 2013 18:18:31
Eccentricity: 0.0344401
inclination: 35.6280°
perigee height: 425 km
apogee height: 910 km
right ascension of ascending node: 255.3710°
argument of perigee: 141.9395°
revolutions per day: 14.67933147
mean anomaly at epoch: 220.6180°
orbit number at epoch: 22799

The dashed part of the orbit path shows where the satellite is in the earth's shadow,  

Developed and maintained by Chris Peat, Heavens-Above GmbH. Please read the updated FAQ before sending e-mail. Imprint. DLR